Regional Weather Roundup
Issued by NWS Portland, ME

Home | Current Version | Previous Version | Text Only | Print | Product List | Glossary On
Versions: 1 2 3 4 5 6 7 8 9 10 11 12 13 14 15 16 17 18 19 20 21 22 23 24 25 26 27 28 29 30 31 32 33 34 35 36 37 38 39 40 41 42 43 44 45 46 47 48 49 50
000
ASUS41 KGYX 210910
RWRGYX
WEATHER ROUNDUP FOR MAINE AND NEW HAMPSHIRE
NATIONAL WEATHER SERVICE GRAY ME
400 AM EST SAT JAN 21 2017

MEZ002-005-006-010-012-015-018-020-021-024-026-027-029-211000-
MAINE

CITY           SKY/WX    TMP DP  RH WIND       PRES   REMARKS
PORTLAND       CLOUDY    37  30  75 CALM      29.86F
SANFORD        CLOUDY    34  31  88 SW5       29.87F
BAR HARBOR     CLOUDY    33  29  85 CALM      29.87F
WISCASSET      CLOUDY    32  29  88 CALM      29.87F
ROCKLAND       CLOUDY    37  31  78 SW3       29.86F
FRYEBURG       CLOUDY    32  28  85 NW3       29.84F
LEWISTONAUBURN CLOUDY    34  29  82 S3        29.85F
AUGUSTA        CLOUDY    34  26  72 SW5       29.84F
WATERVILLE     CLOUDY    34  29  82 SW7       29.81F
BANGOR         CLOUDY    32  29  88 S3        29.86F
GREENVILLE       N/A     27  26  96 VRB3      29.76F
MILLINOCKET    CLOUDY    31  26  82 CALM      29.83F
HOULTON        CLOUDY    28  24  85 S6        29.81F
PRESQUE ISLE   CLOUDY    27  24  89 SE3       29.82S
FRENCHVILLE    CLOUDY    26  22  84 SE5       29.76S
CARIBOU        CLOUDY    27  23  85 S6        29.78F
$$

NHZ002-005-008-009-011-012-014-211000-
NEW HAMPSHIRE

CITY           SKY/WX    TMP DP  RH WIND       PRES   REMARKS
PORTSMOUTH     CLOUDY    36  31  82 S2        29.86F
ROCHESTER      CLOUDY    34  29  82 CALM      29.85F
NASHUA         CLOUDY    36  33  89 CALM      29.87F
MANCHESTER     CLOUDY    36  31  82 S7        29.85F
CONCORD        CLOUDY    34  29  82 CALM      29.86F
LACONIA        CLOUDY    32  29  88 CALM      29.85F
PLYMOUTH       CLOUDY    32  31  95 CALM      29.84F
BERLIN         CLOUDY    27  23  85 CALM      29.81F
WHITEFIELD     CLOUDY    29  25  85 CALM      29.82F
JAFFREY        FOG       34  33  96 S3        29.83F VSB 3/4
KEENE          CLOUDY    33  31  92 CALM      29.86F
LEBANON        CLOUDY    36  32  85 S6        29.83F
MT WASHINGTON  MOCLDY    34   0  23 W31         N/A  WCI  20
$$

VTZ005-007-008-211000-
VERMONT

CITY           SKY/WX    TMP DP  RH WIND       PRES   REMARKS
ST JOHNSBURY     N/A     33  30  88 MISG      29.82F
MONTPELIER     CLOUDY    32  30  92 CALM      29.84S
BURLINGTON     CLOUDY    38  34  85 S10       29.82F
$$

MAZ007-012-024-CTZ003-RIZ002-NYZ038-NYZ072-211000-
SOUTHERN NEW ENGLAND AND NY

CITY           SKY/WX    TMP DP  RH WIND       PRES   REMARKS
BOSTON         CLOUDY    38  37  97 S6        29.89F
WORCESTER      FOG       34  32  92 SW7       29.84F VSB 1/4
NANTUCKET      CLOUDY    42  36  79 S6        29.90F
PROVIDENCE     CLOUDY    40  35  83 CALM      29.89F
HARTFORD       CLOUDY    37  37 100 CALM      29.88F FOG
ALBANY         CLOUDY    39  35  86 S7        29.86F
NEW YORK CITY  CLOUDY    45  41  86 SW8       29.90F FOG
$$

ANZ081-ANZ082-ANZ150-NHZ014-MEZ023>029-211000-
COASTAL MARINE OBSERVATIONS

STATION/POSITION TIME  TEMP    WIND        PRES    WAVE
                       AIR SEA DIR/SP/G            HT/PER
                 (UTC) (F)     (DEG/KT/KT) (MB)    (FT/S)
MOUNT DESERT ROC 0900   39                 1011.7F
MATINICUS ROCK   0800   39     240/ 10/ 11 1011.5F
ISLE OF SHOALS   0800   39     230/ 14/ 15 1011.8F
CASHES LEDGE BUO 0750   40 46  220/  4/  6 1012.8    4/11
GEORGES BANK BUO 0750   40 43              1013.6    7/14
$$

.............KEY..............
   WCI - WIND CHILL
   TC  - TEMPERATURE IN CELSIUS
   VSB - VISIBILITY IN MILES
   HX  - HEAT INDEX
   FAIR- INDICATES FEW OR NO CLOUDS BELOW 12,000 FT, WITH NO
         SIGNIFICANT WEATHER AND/OR OBSTRUCTIONS TO VISIBILITY.






USA.gov is the U.S. government's official web portal to all federal, state and local government web resources and services.